WetterOnline ( http://www.wetteronline.de )

Wetter aktuell Altmark

Aktuelles Wetter: Gardelegen (48m)

6-stündlich | Neueste Meldungen
Ortszeit Temperatur Wetter
Mo, 19.02. 19:00 2.1° C bedeckt
Mo, 19.02. 13:00 3.8° C leicht bewölkt
Mo, 19.02. 7:00 -1.9° C bewölkt
Mo, 19.02. 1:00 -1.9° C bewölkt
So, 18.02. 19:00 0.9° C leicht bewölkt
So, 18.02. 13:00 4.5° C wolkig
So, 18.02. 7:00 -0.3° C bedeckt
So, 18.02. 1:00 0.4° C bedeckt
Ortszeit Temperatur Wetter
Mo, 19.02. 20:30 -0.9° C bewölkt
Mo, 19.02. 20:20 -0.9° C bewölkt
Mo, 19.02. 20:10 -0.6° C bewölkt
Mo, 19.02. 20:00 0.4° C bewölkt
Mo, 19.02. 19:50 0.4° C bewölkt
Mo, 19.02. 19:40 0.6° C bewölkt
Mo, 19.02. 19:30 0.6° C bedeckt
Mo, 19.02. 19:00 2.1° C bedeckt
Mo, 19.02. 18:30 2.9° C bedeckt
Mo, 19.02. 18:00 3.5° C bedeckt
Mo, 19.02. 17:30 4.5° C bedeckt
Ortszeit Relative Feuchte Sichtweite
Mo, 19.02. 19:00 74% 16 km
Mo, 19.02. 13:00 67% 14 km
Mo, 19.02. 7:00 91% 7 km
Mo, 19.02. 1:00 88% 10 km
So, 18.02. 19:00 72% 25 km
So, 18.02. 13:00 56% 50 km
So, 18.02. 7:00 92% 50 km
So, 18.02. 1:00 87% 30 km
Ortszeit Relative Feuchte Sichtweite
Mo, 19.02. 20:30 93% 12 km
Mo, 19.02. 20:20 93% -
Mo, 19.02. 20:10 93% -
Mo, 19.02. 20:00 83% 13 km
Mo, 19.02. 19:50 83% -
Mo, 19.02. 19:40 83% -
Mo, 19.02. 19:30 83% 14 km
Mo, 19.02. 19:00 74% 16 km
Mo, 19.02. 18:30 71% 15 km
Mo, 19.02. 18:00 70% 14 km
Mo, 19.02. 17:30 61% 13 km
Ortszeit Niederschlagsmenge Niederschlagsart
Mo, 19.02. 19:00 0.0 l/m2 in 12 Std. -
Mo, 19.02. 13:00 0.0 l/m2 in 6 Std. -
Mo, 19.02. 7:00 0.0 l/m2 in 12 Std. -
Mo, 19.02. 1:00 0.0 l/m2 in 6 Std. -
So, 18.02. 19:00 0.0 l/m2 in 12 Std. -
So, 18.02. 13:00 0.0 l/m2 in 6 Std. -
So, 18.02. 7:00 0.0 l/m2 in 12 Std. -
So, 18.02. 1:00 0.0 l/m2 in 6 Std. -
Ortszeit Niederschlagsmenge Niederschlagsart
Mo, 19.02. 20:30 0.0 l/m2 in 1 Std. -
Mo, 19.02. 20:20 keine Meldung -
Mo, 19.02. 20:10 keine Meldung -
Mo, 19.02. 20:00 0.0 l/m2 in 1 Std. -
Mo, 19.02. 19:50 keine Meldung -
Mo, 19.02. 19:40 keine Meldung -
Mo, 19.02. 19:30 0.0 l/m2 in 1 Std. -
Mo, 19.02. 19:00 0.0 l/m2 in 1 Std. -
Mo, 19.02. 18:30 0.0 l/m2 in 1 Std. -
Mo, 19.02. 18:00 0.0 l/m2 in 1 Std. -
Mo, 19.02. 17:30 0.0 l/m2 in 1 Std. -
Ortszeit Stärke Spitze Richtung
km/h Bft. km/h Grad Sektor
Mo, 19.02. 19:00 0 0 11 - -
Mo, 19.02. 13:00 6 1 11 240° SW
Mo, 19.02. 7:00 2 1 11 200° S
Mo, 19.02. 1:00 4 1 18 200° S
So, 18.02. 19:00 9 2 28 150° SO
So, 18.02. 13:00 11 2 18 180° S
So, 18.02. 7:00 4 1 7 220° SW
So, 18.02. 1:00 4 1 7 330° NW
Ortszeit Stärke Spitze Richtung
km/h Bft. km/h Grad Sektor
Mo, 19.02. 20:30 0 0 4 - -
Mo, 19.02. 20:20 0 0 - 270° W
Mo, 19.02. 20:10 0 0 - 70° O
Mo, 19.02. 20:00 0 0 4 - -
Mo, 19.02. 19:50 2 1 - 110° O
Mo, 19.02. 19:40 0 0 - 120° SO
Mo, 19.02. 19:30 0 0 4 - -
Mo, 19.02. 19:00 0 0 11 - -
Mo, 19.02. 18:30 4 1 11 110° O
Mo, 19.02. 18:00 6 1 9 80° O
Mo, 19.02. 17:30 4 1 11 60° NO
Ortszeit Untergrenze Bedeckung Gattung
total tief tief mittel hoch
Mo, 19.02. 19:00 2700 m 8/8 8/8 - - -
Mo, 19.02. 13:00 2700 m 2/8 2/8 - - -
Mo, 19.02. 7:00 3300 m 7/8 7/8 - - -
Mo, 19.02. 1:00 4500 m 7/8 7/8 - - -
So, 18.02. 19:00 4800 m 3/8 3/8 - - -
So, 18.02. 13:00 1290 m 5/8 5/8 - - -
So, 18.02. 7:00 1230 m 8/8 8/8 - - -
So, 18.02. 1:00 1200 m 8/8 8/8 - - -
Ortszeit Bedeckungsgrad in Achtel und Wolkenuntergrenze
Mo, 19.02. 20:30 7(2400m) 8(3900m)
Mo, 19.02. 20:20 7(2400m) 8(3900m)
Mo, 19.02. 20:10 7(2400m) 8(3900m)
Mo, 19.02. 20:00 7(2700m) 8(3900m)
Mo, 19.02. 19:50 7(2700m) 8(3900m)
Mo, 19.02. 19:40 7(2700m) 8(3900m)
Mo, 19.02. 19:30 8(2700m) 8(3900m)
Mo, 19.02. 19:00 8(2700m) 8(4200m)
Mo, 19.02. 18:30 8(2700m)
Mo, 19.02. 18:00 8(2700m)
Mo, 19.02. 17:30 8(2700m)
Ortszeit Luftdruck NN (hPa) Tendenz (hPa in 3 Std.)
Mo, 19.02. 19:00 1020 - 0,1
Mo, 19.02. 13:00 1022 - 1,1
Mo, 19.02. 7:00 1023 - 0,7
Mo, 19.02. 1:00 1026 - 1,0
So, 18.02. 19:00 1027 - 0,6
So, 18.02. 13:00 1029 + 0,1
So, 18.02. 7:00 1029 + 0,7
So, 18.02. 1:00 1028 + 1,2
Ortszeit Luftdruck NN (hPa) Tendenz (hPa in 3 Std.)
Mo, 19.02. 20:30 1020 + 0,2
Mo, 19.02. 20:20 1020 keine Meldung
Mo, 19.02. 20:10 1020 keine Meldung
Mo, 19.02. 20:00 1020 + 0,1
Mo, 19.02. 19:50 1020 keine Meldung
Mo, 19.02. 19:40 1020 keine Meldung
Mo, 19.02. 19:30 1020 + 0,1
Mo, 19.02. 19:00 1020 - 0,1
Mo, 19.02. 18:30 1020 - 0,2
Mo, 19.02. 18:00 1020 - 0,3
Mo, 19.02. 17:30 1020 - 0,7
Ortszeit Schneehöhe (cm)
Mo, 19.02. 19:00 0
Mo, 19.02. 13:00 0
Mo, 19.02. 7:00 0
Mo, 19.02. 1:00 0
So, 18.02. 19:00 0
So, 18.02. 13:00 0
So, 18.02. 7:00 0
So, 18.02. 1:00 0
Ortszeit Schneehöhe (cm)
Mo, 19.02. 20:30 0
Mo, 19.02. 20:20 0
Mo, 19.02. 20:10 0
Mo, 19.02. 20:00 0
Mo, 19.02. 19:50 0
Mo, 19.02. 19:40 0
Mo, 19.02. 19:30 0
Mo, 19.02. 19:00 0
Mo, 19.02. 18:30 0
Mo, 19.02. 18:00 0
Mo, 19.02. 17:30 0
Link zu dieser Seite / Seite empfehlen

Das Wetter in ...